When you browse on this site, cookies collect data to enhance your experience and personalize the content and advertising you see.
Visit our Privacy Policy to learn more. By continuing to use the site, you agree to this use of cookies and data.
  • En España
  • Lista de países
  • Para 7 días
  • Temperatura del agua
  • El tiempo en el mapa
  • Informadores
  • user-avatar
    Iniciar sesión

    Tiempo cada hora Baksheevo

    Hoy, 7 Junio, Domingo

    Tiempo Temperatura Precipitaciones Viento Presión Humedad
    00:00 +15°C° 0 mm 1 mps 744 mmHg 93%
    01:00 +14°C° 0 mm 1 mps 745 mmHg 93%
    02:00 +14°C° 0 mm 1 mps 745 mmHg 93%
    03:00 +14°C° 0 mm 1 mps 746 mmHg 93%
    04:00 +13°C° 0 mm 0 mps 746 mmHg 92%
    05:00 +14°C° 0 mm 0 mps 746 mmHg 91%
    06:00 +15°C° 0 mm 0 mps 746 mmHg 87%
    07:00 +17°C° 0 mm 0 mps 747 mmHg 82%
    08:00 +21°C° 0 mm 1 mps 747 mmHg 78%
    09:00 +22°C° 0 mm 1 mps 747 mmHg 71%
    10:00 +24°C° 0 mm 1 mps 748 mmHg 64%
    11:00 +25°C° 0 mm 1 mps 748 mmHg 58%
    12:00 +26°C° 0 mm 1 mps 748 mmHg 56%
    13:00 +26°C° 0 mm 2 mps 748 mmHg 55%
    14:00 +26°C° 0 mm 2 mps 748 mmHg 54%
    15:00 +26°C° 0 mm 2 mps 747 mmHg 58%
    16:00 +26°C° 0 mm 2 mps 747 mmHg 62%
    17:00 +25°C° 0 mm 2 mps 747 mmHg 65%
    18:00 +24°C° 0 mm 2 mps 747 mmHg 72%
    19:00 +21°C° 0 mm 2 mps 746 mmHg 78%
    20:00 +20°C° 0 mm 2 mps 746 mmHg 84%
    21:00 +19°C° 0 mm 2 mps 746 mmHg 85%
    22:00 +18°C° 0 mm 2 mps 747 mmHg 86%
    23:00 +17°C° 0 mm 2 mps 747 mmHg 87%

    Mañana, 8 Junio, Lunes

    Tiempo Temperatura Precipitaciones Viento Presión Humedad
    00:00 +17°C° 0 mm 2 mps 747 mmHg 89%
    01:00 +17°C° 0 mm 2 mps 747 mmHg 90%
    02:00 +17°C° 0 mm 2 mps 747 mmHg 91%
    03:00 +17°C° 0 mm 2 mps 747 mmHg 92%
    04:00 +17°C° 0 mm 2 mps 746 mmHg 92%
    05:00 +18°C° 0 mm 2 mps 746 mmHg 93%
    06:00 +20°C° 0 mm 3 mps 746 mmHg 88%
    07:00 +21°C° 0 mm 3 mps 747 mmHg 84%
    08:00 +24°C° 0 mm 3 mps 747 mmHg 79%
    09:00 +25°C° 0 mm 3 mps 747 mmHg 74%
    10:00 +26°C° 0 mm 4 mps 747 mmHg 70%
    11:00 +27°C° 0 mm 4 mps 747 mmHg 65%
    12:00 +28°C° 0 mm 4 mps 747 mmHg 64%
    13:00 +28°C° 0 mm 4 mps 747 mmHg 62%
    14:00 +29°C° 0 mm 4 mps 746 mmHg 60%
    15:00 +28°C° 0 mm 3 mps 746 mmHg 63%
    16:00 +28°C° 0 mm 3 mps 746 mmHg 65%
    17:00 +27°C° 0 mm 3 mps 746 mmHg 67%
    18:00 +26°C° 0 mm 2 mps 746 mmHg 74%
    19:00 +24°C° 0 mm 2 mps 746 mmHg 80%
    20:00 +22°C° 0 mm 1 mps 746 mmHg 86%
    21:00 +22°C° 0 mm 1 mps 746 mmHg 87%
    22:00 +21°C° 0 mm 1 mps 746 mmHg 89%
    23:00 +20°C° 0 mm 1 mps 746 mmHg 90%

    Pasado mañana, 9 Junio, Martes

    Tiempo Temperatura Precipitaciones Viento Presión Humedad
    00:00 +20°C° 0 mm 1 mps 746 mmHg 91%
    01:00 +18°C° 0 mm 2 mps 746 mmHg 91%
    02:00 +18°C° 0 mm 2 mps 746 mmHg 92%
    03:00 +18°C° 0 mm 2 mps 746 mmHg 92%
    04:00 +19°C° 0 mm 2 mps 746 mmHg 92%
    05:00 +19°C° 0 mm 2 mps 746 mmHg 92%
    06:00 +21°C° 0 mm 2 mps 746 mmHg 87%
    07:00 +23°C° 0 mm 2 mps 747 mmHg 81%
    08:00 +25°C° 0 mm 2 mps 747 mmHg 76%
    09:00 +26°C° 0 mm 2 mps 747 mmHg 72%
    10:00 +27°C° 0 mm 2 mps 747 mmHg 68%
    11:00 +28°C° 0 mm 2 mps 747 mmHg 64%
    12:00 +28°C° 0.3 mm 3 mps 747 mmHg 64%
    13:00 +29°C° 0.3 mm 3 mps 747 mmHg 63%
    14:00 +29°C° 0.3 mm 3 mps 746 mmHg 62%
    15:00 +29°C° 0.2 mm 3 mps 746 mmHg 65%
    16:00 +28°C° 0.2 mm 2 mps 746 mmHg 67%
    17:00 +28°C° 0.2 mm 1 mps 746 mmHg 69%
    18:00 +26°C° 0.1 mm 1 mps 746 mmHg 74%
    19:00 +25°C° 0.1 mm 1 mps 746 mmHg 80%
    20:00 +23°C° 0.1 mm 1 mps 746 mmHg 86%
    21:00 +22°C° 0 mm 1 mps 746 mmHg 88%
    22:00 +21°C° 0 mm 1 mps 747 mmHg 90%
    23:00 +21°C° 0 mm 1 mps 747 mmHg 92%

    10 Junio, Miércoles

    Tiempo Temperatura Precipitaciones Viento Presión Humedad
    00:00 +20°C° 0 mm 1 mps 747 mmHg 92%
    01:00 +20°C° 0 mm 1 mps 747 mmHg 93%
    02:00 +19°C° 0 mm 1 mps 747 mmHg 94%
    03:00 +20°C° 0 mm 1 mps 747 mmHg 94%
    04:00 +20°C° 0 mm 1 mps 747 mmHg 94%
    05:00 +20°C° 0 mm 1 mps 747 mmHg 94%
    06:00 +22°C° 0 mm 1 mps 747 mmHg 88%
    07:00 +24°C° 0 mm 1 mps 747 mmHg 82%
    08:00 +26°C° 0 mm 1 mps 747 mmHg 76%
    09:00 +27°C° 0.1 mm 1 mps 747 mmHg 70%
    10:00 +28°C° 0.1 mm 1 mps 747 mmHg 65%
    11:00 +29°C° 0.1 mm 1 mps 747 mmHg 59%
    12:00 +29°C° 0.3 mm 2 mps 747 mmHg 62%
    13:00 +29°C° 0.3 mm 2 mps 746 mmHg 65%
    14:00 +29°C° 0.3 mm 2 mps 746 mmHg 67%
    15:00 +28°C° 0.3 mm 2 mps 746 mmHg 68%
    16:00 +28°C° 0.3 mm 2 mps 746 mmHg 69%
    17:00 +28°C° 0.3 mm 1 mps 746 mmHg 70%
    18:00 +26°C° 0.5 mm 1 mps 746 mmHg 76%
    19:00 +25°C° 0.5 mm 2 mps 746 mmHg 83%
    20:00 +23°C° 0.5 mm 2 mps 746 mmHg 89%
    21:00 +21°C° 0 mm 2 mps 746 mmHg 90%
    22:00 +20°C° 0 mm 2 mps 746 mmHg 92%
    23:00 +21°C° 0 mm 1 mps 746 mmHg 94%

    11 Junio, Jueves

    Tiempo Temperatura Precipitaciones Viento Presión Humedad
    00:00 +20°C° 0 mm 1 mps 746 mmHg 94%
    01:00 +20°C° 0 mm 1 mps 746 mmHg 94%
    02:00 +19°C° 0 mm 1 mps 746 mmHg 95%
    03:00 +20°C° 0 mm 1 mps 746 mmHg 95%
    04:00 +20°C° 0 mm 1 mps 746 mmHg 94%
    05:00 +19°C° 0 mm 2 mps 746 mmHg 94%
    06:00 +21°C° 0 mm 2 mps 746 mmHg 89%
    07:00 +23°C° 0 mm 2 mps 746 mmHg 84%
    08:00 +25°C° 0 mm 2 mps 746 mmHg 78%
    09:00 +26°C° 0.1 mm 2 mps 746 mmHg 72%
    10:00 +28°C° 0.1 mm 2 mps 746 mmHg 66%
    11:00 +29°C° 0.1 mm 2 mps 746 mmHg 60%
    12:00 +29°C° 0.3 mm 2 mps 746 mmHg 60%
    13:00 +29°C° 0.3 mm 2 mps 745 mmHg 60%
    14:00 +29°C° 0.3 mm 2 mps 745 mmHg 60%
    15:00 +29°C° 0.3 mm 2 mps 745 mmHg 64%
    16:00 +28°C° 0.3 mm 2 mps 745 mmHg 68%
    17:00 +28°C° 0.3 mm 2 mps 745 mmHg 72%
    18:00 +26°C° 0.1 mm 2 mps 745 mmHg 77%
    19:00 +25°C° 0.1 mm 2 mps 745 mmHg 82%
    20:00 +23°C° 0.1 mm 2 mps 745 mmHg 87%
    21:00 +21°C° 0 mm 2 mps 745 mmHg 90%
    22:00 +20°C° 0 mm 2 mps 745 mmHg 92%
    23:00 +19°C° 0 mm 2 mps 745 mmHg 94%

    12 Junio, Viernes

    Tiempo Temperatura Precipitaciones Viento Presión Humedad
    00:00 +19°C° 0 mm 2 mps 745 mmHg 95%
    01:00 +19°C° 0 mm 2 mps 745 mmHg 95%
    02:00 +18°C° 0 mm 2 mps 744 mmHg 96%
    03:00 +19°C° 0 mm 2 mps 744 mmHg 96%
    04:00 +19°C° 0 mm 2 mps 744 mmHg 95%
    05:00 +19°C° 0 mm 2 mps 744 mmHg 95%
    06:00 +21°C° 0.2 mm 2 mps 744 mmHg 91%
    07:00 +23°C° 0.2 mm 2 mps 745 mmHg 87%
    08:00 +25°C° 0.2 mm 2 mps 745 mmHg 84%
    09:00 +26°C° 0.5 mm 2 mps 745 mmHg 79%
    10:00 +27°C° 0.5 mm 3 mps 745 mmHg 74%
    11:00 +28°C° 0.5 mm 3 mps 744 mmHg 69%
    12:00 +28°C° 0.3 mm 3 mps 744 mmHg 67%
    13:00 +28°C° 0.3 mm 3 mps 744 mmHg 65%
    14:00 +29°C° 0.3 mm 3 mps 744 mmHg 63%
    15:00 +28°C° 0.3 mm 2 mps 744 mmHg 67%
    16:00 +28°C° 0.3 mm 2 mps 744 mmHg 72%
    17:00 +28°C° 0.3 mm 2 mps 744 mmHg 76%
    18:00 +26°C° 0.1 mm 2 mps 744 mmHg 80%
    19:00 +25°C° 0.1 mm 2 mps 744 mmHg 84%
    20:00 +23°C° 0.1 mm 2 mps 744 mmHg 88%
    21:00 +23°C° 0 mm 2 mps 744 mmHg 90%
    22:00 +21°C° 0 mm 2 mps 744 mmHg 91%
    23:00 +20°C° 0 mm 2 mps 744 mmHg 93%
    Mostrar más